• In Netherlands
  • List of Countries
  • For 7 days
  • Water Temperature
  • Satellite Maps
  • Weather Map
  • Weather Widgets
  • user-avatar
    Login

    Hourly Weather Barra

    Today, 21 January, Sunday

    Time Temperature Precipitation Wind Pressure Humidity
    00:00 +25°C° 0 mm 3 mps 746 mmHg 89%
    01:00 +25°C° 0 mm 3 mps 745 mmHg 89%
    02:00 +25°C° 0 mm 3 mps 745 mmHg 90%
    03:00 +25°C° 0 mm 3 mps 745 mmHg 91%
    04:00 +25°C° 0 mm 3 mps 745 mmHg 91%
    05:00 +25°C° 0.5 mm 3 mps 745 mmHg 92%
    06:00 +25°C° 0.5 mm 3 mps 745 mmHg 93%
    07:00 +25°C° 0.5 mm 3 mps 746 mmHg 95%
    08:00 +25°C° 1 mm 3 mps 746 mmHg 94%
    09:00 +25°C° 1 mm 3 mps 746 mmHg 93%
    10:00 +26°C° 0 mm 3 mps 746 mmHg 84%
    11:00 +28°C° 0 mm 3 mps 745 mmHg 78%
    12:00 +29°C° 0 mm 3 mps 745 mmHg 71%
    13:00 +30°C° 0 mm 3 mps 745 mmHg 64%
    14:00 +30°C° 0 mm 3 mps 744 mmHg 64%
    15:00 +30°C° 0 mm 4 mps 744 mmHg 63%
    16:00 +30°C° 0 mm 4 mps 744 mmHg 63%
    17:00 +28°C° 0 mm 4 mps 744 mmHg 69%
    18:00 +27°C° 0 mm 4 mps 744 mmHg 75%
    19:00 +26°C° 0 mm 4 mps 745 mmHg 81%
    20:00 +26°C° 0 mm 3 mps 745 mmHg 83%
    21:00 +25°C° 0 mm 3 mps 745 mmHg 86%
    22:00 +25°C° 0 mm 3 mps 746 mmHg 88%
    23:00 +25°C° 0 mm 3 mps 746 mmHg 89%

    Tomorrow, 22 January, Monday

    Time Temperature Precipitation Wind Pressure Humidity
    00:00 +25°C° 0 mm 3 mps 745 mmHg 89%
    01:00 +25°C° 0 mm 3 mps 745 mmHg 90%
    02:00 +25°C° 0.1 mm 3 mps 745 mmHg 91%
    03:00 +25°C° 0.1 mm 3 mps 745 mmHg 92%
    04:00 +24°C° 0.1 mm 3 mps 744 mmHg 92%
    05:00 +25°C° 0 mm 3 mps 745 mmHg 92%
    06:00 +25°C° 0 mm 3 mps 745 mmHg 92%
    07:00 +25°C° 0 mm 3 mps 745 mmHg 91%
    08:00 +25°C° 0.1 mm 3 mps 745 mmHg 88%
    09:00 +26°C° 0.1 mm 2 mps 745 mmHg 86%
    10:00 +27°C° 0.1 mm 2 mps 745 mmHg 83%
    11:00 +27°C° 0.1 mm 3 mps 745 mmHg 80%
    12:00 +28°C° 0.1 mm 3 mps 744 mmHg 77%
    13:00 +28°C° 0.1 mm 3 mps 744 mmHg 74%
    14:00 +28°C° 0.5 mm 3 mps 744 mmHg 80%
    15:00 +27°C° 0.5 mm 3 mps 744 mmHg 85%
    16:00 +26°C° 0.5 mm 3 mps 743 mmHg 91%
    17:00 +25°C° 0.8 mm 2 mps 744 mmHg 92%
    18:00 +25°C° 0.8 mm 2 mps 744 mmHg 94%
    19:00 +24°C° 0.8 mm 2 mps 744 mmHg 95%
    20:00 +24°C° 0.2 mm 2 mps 745 mmHg 95%
    21:00 +24°C° 0.2 mm 2 mps 745 mmHg 95%
    22:00 +24°C° 0.2 mm 2 mps 745 mmHg 95%
    23:00 +24°C° 0.1 mm 2 mps 745 mmHg 95%

    Day after tomorrow, 23 January, Tuesday

    Time Temperature Precipitation Wind Pressure Humidity
    00:00 +23°C° 0.1 mm 2 mps 745 mmHg 95%
    01:00 +23°C° 0.1 mm 2 mps 744 mmHg 95%
    02:00 +22°C° 0.7 mm 3 mps 744 mmHg 95%
    03:00 +22°C° 0.7 mm 3 mps 744 mmHg 96%
    04:00 +22°C° 0.7 mm 3 mps 743 mmHg 96%
    05:00 +22°C° 1.2 mm 3 mps 744 mmHg 96%
    06:00 +22°C° 1.2 mm 3 mps 744 mmHg 96%
    07:00 +22°C° 1.2 mm 3 mps 744 mmHg 97%
    08:00 +22°C° 1.1 mm 3 mps 744 mmHg 96%
    09:00 +24°C° 1.1 mm 3 mps 745 mmHg 96%
    10:00 +24°C° 1.1 mm 3 mps 745 mmHg 96%
    11:00 +24°C° 0.5 mm 3 mps 744 mmHg 95%
    12:00 +25°C° 0.5 mm 3 mps 744 mmHg 94%
    13:00 +25°C° 0.5 mm 3 mps 744 mmHg 93%
    14:00 +26°C° 0.2 mm 3 mps 743 mmHg 91%
    15:00 +26°C° 0.2 mm 3 mps 743 mmHg 90%
    16:00 +27°C° 0.2 mm 4 mps 742 mmHg 88%
    17:00 +26°C° 0.4 mm 4 mps 743 mmHg 91%
    18:00 +26°C° 0.4 mm 3 mps 743 mmHg 93%
    19:00 +25°C° 0.4 mm 3 mps 743 mmHg 96%
    20:00 +25°C° 0.8 mm 3 mps 744 mmHg 97%
    21:00 +25°C° 0.8 mm 3 mps 744 mmHg 97%
    22:00 +25°C° 0.8 mm 3 mps 744 mmHg 98%
    23:00 +25°C° 1.4 mm 2 mps 744 mmHg 98%

    24 January, Wednesday

    Time Temperature Precipitation Wind Pressure Humidity
    00:00 +25°C° 1.4 mm 2 mps 743 mmHg 98%
    01:00 +25°C° 1.4 mm 2 mps 743 mmHg 98%
    02:00 +25°C° 2.4 mm 2 mps 743 mmHg 98%
    03:00 +25°C° 2.4 mm 2 mps 742 mmHg 98%
    04:00 +25°C° 2.4 mm 2 mps 742 mmHg 98%
    05:00 +25°C° 1.2 mm 2 mps 742 mmHg 98%
    06:00 +25°C° 1.2 mm 2 mps 743 mmHg 98%
    07:00 +25°C° 1.2 mm 2 mps 743 mmHg 98%
    08:00 +26°C° 0.5 mm 2 mps 743 mmHg 96%
    09:00 +27°C° 0.5 mm 2 mps 743 mmHg 93%
    10:00 +27°C° 0.5 mm 2 mps 743 mmHg 91%
    11:00 +28°C° 0.4 mm 2 mps 743 mmHg 91%
    12:00 +28°C° 0.4 mm 2 mps 742 mmHg 92%
    13:00 +28°C° 0.4 mm 2 mps 742 mmHg 92%
    14:00 +28°C° 1.7 mm 2 mps 741 mmHg 94%
    15:00 +27°C° 1.7 mm 2 mps 741 mmHg 95%
    16:00 +26°C° 1.7 mm 2 mps 740 mmHg 97%
    17:00 +26°C° 3.8 mm 2 mps 741 mmHg 97%
    18:00 +26°C° 3.8 mm 2 mps 741 mmHg 98%
    19:00 +26°C° 3.8 mm 2 mps 742 mmHg 98%
    20:00 +26°C° 3.7 mm 2 mps 742 mmHg 98%
    21:00 +26°C° 3.7 mm 2 mps 743 mmHg 98%
    22:00 +26°C° 3.7 mm 2 mps 743 mmHg 98%
    23:00 +26°C° 5 mm 2 mps 743 mmHg 98%

    25 January, Thursday

    Time Temperature Precipitation Wind Pressure Humidity
    00:00 +25°C° 5 mm 2 mps 742 mmHg 98%
    01:00 +25°C° 5 mm 2 mps 742 mmHg 98%
    02:00 +25°C° 3.3 mm 2 mps 741 mmHg 98%
    03:00 +25°C° 3.3 mm 2 mps 741 mmHg 98%
    04:00 +25°C° 3.3 mm 2 mps 741 mmHg 98%
    05:00 +25°C° 2 mm 2 mps 741 mmHg 98%
    06:00 +25°C° 2 mm 2 mps 742 mmHg 98%
    07:00 +25°C° 2 mm 2 mps 742 mmHg 98%
    08:00 +26°C° 1 mm 1 mps 742 mmHg 98%
    09:00 +26°C° 1 mm 1 mps 742 mmHg 97%
    10:00 +26°C° 1 mm 1 mps 743 mmHg 96%
    11:00 +26°C° 0.3 mm 1 mps 742 mmHg 96%
    12:00 +26°C° 0.3 mm 1 mps 742 mmHg 96%
    13:00 +26°C° 0.3 mm 1 mps 741 mmHg 96%
    14:00 +26°C° 0.9 mm 1 mps 741 mmHg 97%
    15:00 +26°C° 0.9 mm 1 mps 741 mmHg 97%
    16:00 +26°C° 0.9 mm 1 mps 740 mmHg 97%
    17:00 +26°C° 0.9 mm 1 mps 741 mmHg 97%
    18:00 +25°C° 0.9 mm 1 mps 741 mmHg 97%
    19:00 +25°C° 0.9 mm 1 mps 741 mmHg 97%
    20:00 +25°C° 0.5 mm 1 mps 742 mmHg 97%
    21:00 +25°C° 0.5 mm 1 mps 742 mmHg 97%
    22:00 +25°C° 0.5 mm 1 mps 743 mmHg 97%
    23:00 +25°C° 0.6 mm 1 mps 742 mmHg 97%

    26 January, Friday

    Time Temperature Precipitation Wind Pressure Humidity
    00:00 +25°C° 0.6 mm 1 mps 742 mmHg 97%
    01:00 +25°C° 0.6 mm 1 mps 742 mmHg 97%
    02:00 +25°C° 0.9 mm 1 mps 741 mmHg 97%
    03:00 +25°C° 0.9 mm 1 mps 741 mmHg 97%
    04:00 +25°C° 0.9 mm 1 mps 741 mmHg 97%
    05:00 +25°C° 1.1 mm 1 mps 741 mmHg 97%
    06:00 +25°C° 1.1 mm 1 mps 742 mmHg 97%
    07:00 +25°C° 1.1 mm 1 mps 742 mmHg 97%
    08:00 +25°C° 0.2 mm 1 mps 742 mmHg 97%
    09:00 +25°C° 0.2 mm 1 mps 742 mmHg 96%
    10:00 +26°C° 0.2 mm 1 mps 742 mmHg 96%
    11:00 +27°C° 0.1 mm 1 mps 742 mmHg 90%
    12:00 +28°C° 0.1 mm 1 mps 741 mmHg 84%
    13:00 +30°C° 0.1 mm 1 mps 741 mmHg 78%
    14:00 +30°C° 0.2 mm 1 mps 740 mmHg 77%
    15:00 +30°C° 0.2 mm 1 mps 740 mmHg 75%
    16:00 +30°C° 0.2 mm 1 mps 740 mmHg 74%
    17:00 +29°C° 0.7 mm 1 mps 740 mmHg 81%
    18:00 +27°C° 0.7 mm 1 mps 741 mmHg 88%
    19:00 +24°C° 0.7 mm 0 mps 741 mmHg 95%
    20:00 +26°C° 1.2 mm 1 mps 742 mmHg 96%
    21:00 +25°C° 1.2 mm 1 mps 742 mmHg 96%
    22:00 +25°C° 1.2 mm 1 mps 743 mmHg 97%
    23:00 +25°C° 1.7 mm 1 mps 742 mmHg 97%
    Show more